Dewpoint
52 52 52 52 52 53 52 52 52 52 52 50 49 49 49 48 48 47 47 46 44 44 42 43 41 41 43 29 23 35 29 27 25 25 20 17 15 15 14 14 15 15 15 13 15 16 15
52 52 52 53 52 52 52 51 51 51 51 50 50 49 48 48 47 47 46 45 42 42 41 41 40 42 40 19 20 29 28 27 25 19 18 19 16 16 16 14 16 17 17 18 18 18 18
52 52 52 52 52 52 51 51 51 51 51 51 50 49 47 47 46 46 45 41 41 40 41 39 41 40 30 24 17 17 17 20 20 21 21 22 21 20 19 16 17 17 16 17 18 18 17
53 52 52 52 51 51 51 51 51 51 51 51 50 50 48 46 45 42 41 39 39 42 39 40 43 40 25 26 17 16 16 17 21 20 20 22 22 22 21 20 18 18 18 16 16 19 20
52 52 52 52 52 52 52 52 51 51 51 50 50 50 47 45 44 41 40 42 41 38 39 42 41 35 22 27 17 17 17 19 19 20 20 16 22 20 21 19 18 18 13 16 16 20 21
49 49 50 52 52 52 52 51 51 51 51 51 49 50 47 43 43 42 40 36 41 42 40 39 30 17 15 14 19 18 18 18 17 19 21 24 23 19 21 17 12 14 17 18 16 14 16
50 49 49 50 50 50 52 52 52 51 51 50 50 50 47 42 41 44 36 30 27 24 21 18 16 14 18 18 20 20 20 18 19 18 15 18 13 10 16 21 22 22 20 14 14 15 16
49 49 49 48 49 51 51 52 52 51 52 51 51 48 45 40 41 41 32 27 29 30 20 22 18 18 18 18 16 17 19 16 16 14 17 15 8 15 17 22 21 17 15 14 15 17 18
49 49 49 49 48 48 50 51 52 52 52 52 51 49 44 41 38 34 32 32 34 32 25 19 17 17 16 19 15 15 18 18 14 13 15 10 13 15 17 15 15 17 19 17 18 17 17
49 49 48 49 49 48 49 51 51 51 52 52 51 50 44 41 32 27 27 34 35 33 19 13 18 19 18 20 16 15 18 17 16 15 14 13 16 15 13 13 17 9 15 16 17 16 12
49 48 48 48 48 48 48 51 51 51 53 52 51 50 42 40 26 26 28 34 33 30 4 14 15 18 18 16 12 14 17 17 15 14 11 9 13 10 12 17 19 14 17 14 12 14 15
49 49 49 48 48 48 48 49 51 51 52 52 52 49 41 31 29 28 32 34 32 17 3 9 16 15 16 16 13 13 13 18 18 14 12 10 13 18 19 20 17 16 13 12 12 14 5
48 47 48 47 47 48 47 48 50 50 51 52 51 46 35 30 27 29 35 31 19 7 5 7 11 15 16 13 9 9 11 13 10 1 5 10 9 21 20 16 17 8 2 -7 -7 -3 -2
49 49 47 47 47 47 47 47 50 51 51 52 51 40 38 30 30 33 33 21 8 9 11 16 14 15 13 6 6 8 8 8 16 9 1 5 -2 9 13 10 7 4 4 -5 -11 -8 -2
48 49 48 48 47 47 47 47 49 50 52 51 48 35 34 33 30 33 26 15 10 9 15 14 14 8 8 8 9 10 8 9 11 11 -2 -2 7 9 19 17 12 4 -2 7 4 3 2
47 48 49 49 47 46 47 47 48 50 52 51 41 31 32 34 30 31 22 15 10 15 16 15 12 12 9 10 10 8 10 12 16 15 10 7 4 11 12 18 16 6 10 -4 -4 -9 -7
47 47 48 49 49 46 46 46 48 49 51 50 39 29 32 35 34 27 20 19 17 17 15 14 15 14 13 12 11 10 7 10 11 12 13 6 10 8 8 5 -1 4 0 -6 -4 2 -0
47 47 47 48 49 46 46 46 48 49 50 44 38 31 35 35 26 24 22 24 22 19 19 18 17 16 14 14 12 12 10 8 11 15 9 14 13 5 4 5 8 1 -2 -8 -6 -13 -6
48 46 47 47 48 47 45 45 47 49 50 42 32 35 37 33 24 24 25 25 23 20 19 18 17 18 18 15 6 13 14 14 15 14 8 14 6 -0 -3 0 9 7 -2 -2 -8 -7 -12
48 47 47 46 47 46 45 44 46 48 49 41 34 31 32 29 28 25 22 25 24 23 21 20 18 19 17 16 16 11 14 17 16 15 20 25 14 4 -4 -4 -4 -3 -2 2 -3 -7 -11
48 48 47 47 47 45 45 44 46 47 49 42 34 31 30 28 27 25 28 26 23 21 22 21 18 18 16 7 15 14 15 15 17 21 19 15 7 9 10 10 8 3 3 -2 -1 -9 -9
48 47 47 46 47 47 45 45 44 47 49 43 37 34 33 28 28 26 28 26 24 23 21 21 18 19 20 14 14 8 14 14 14 15 12 13 8 5 2 7 5 5 7 1 -4 -5 -6
48 47 46 47 46 47 47 46 46 47 49 43 41 39 36 33 30 27 26 26 26 25 26 23 21 20 19 18 19 18 17 18 17 16 17 17 12 2 2 -3 0 -1 1 -1 -11 -20 -12
50 49 48 47 48 49 49 47 47 48 49 46 42 38 32 29 31 29 28 27 27 28 28 27 28 26 25 20 19 18 17 18 18 18 18 17 10 8 -2 -9 -11 -7 -4 -5 -7 -13 -15
51 51 50 49 49 49 49 48 48 48 49 48 44 38 33 30 32 31 30 29 30 29 29 31 30 29 20 20 19 14 11 11 14 16 14 15 12 5 -3 -12 -8 -5 2 -6 -8 -10 -11
52 52 51 51 50 50 49 49 48 47 48 48 47 43 36 31 32 33 31 31 29 29 29 30 23 21 21 23 19 7 5 7 5 12 17 16 13 8 -9 -12 -12 -11 -6 -13 -6 -8 -2
52 52 52 52 51 50 50 50 49 48 48 48 46 45 38 31 35 34 32 32 32 30 27 27 23 24 23 20 15 12 9 8 4 5 8 8 6 4 4 2 0 -9 -3 -1 -10 -10 -3
52 52 52 52 51 51 51 50 49 49 49 48 45 46 42 33 36 36 35 33 31 30 26 27 25 25 23 17 16 15 14 8 7 8 6 6 4 2 -1 -3 -3 4 3 -7 -10 -2 -1
51 51 51 51 51 51 51 51 50 49 49 48 43 47 46 41 37 37 37 37 36 37 32 29 26 24 24 19 19 20 15 12 10 6 7 5 8 5 3 -1 -8 -6 -7 -9 -3 1 3
Lifted_Index
14 14 14 14 14 14 14 14 14 14 14 15 15 15 15 15 15 15 15 16 16 17 17 17 17 17 16 16 17 18 18 18 18 18 17 16 14 13 12 10 9 9 8 8 7 7 6
14 14 14 14 14 14 14 14 14 14 14 15 15 15 15 15 15 15 16 16 17 17 17 17 17 17 16 16 17 18 18 18 18 18 17 15 14 13 12 10 9 8 8 7 6 6 5
14 14 14 14 14 14 14 14 14 14 14 14 14 15 15 16 16 16 17 17 18 18 17 17 17 16 16 17 18 19 19 18 18 17 16 15 14 13 12 10 9 8 7 5 4 4 4
14 14 14 14 14 14 13 13 13 13 13 13 14 14 15 16 17 17 18 18 18 18 18 17 16 16 16 17 19 19 19 18 18 17 16 15 13 12 11 9 8 6 5 4 3 3 3
14 14 14 14 14 13 12 12 12 12 13 13 14 14 15 16 17 18 18 18 18 18 17 17 16 16 16 18 19 19 18 18 17 16 15 14 12 11 10 8 6 5 4 3 3 3 3
14 15 14 14 13 13 12 12 12 12 12 13 13 14 16 17 18 18 19 18 17 17 17 16 16 16 17 18 19 18 18 17 17 16 14 13 11 10 9 7 5 4 3 3 3 3 3
14 15 15 14 13 13 12 11 11 12 12 13 13 14 16 18 18 19 19 18 17 16 16 16 16 17 18 18 18 18 17 17 16 14 12 11 9 8 8 7 5 4 3 3 3 3 3
14 14 14 14 14 13 12 12 11 12 12 13 13 15 16 18 18 19 19 18 18 17 15 16 17 17 18 18 17 17 17 16 14 12 11 9 8 8 8 7 6 4 4 3 3 3 3
14 14 14 14 14 13 13 12 12 12 12 13 14 15 17 18 18 19 19 19 19 17 14 14 16 17 18 18 16 16 17 15 13 11 10 9 9 9 9 7 6 5 4 4 3 3 3
13 14 14 14 14 14 13 13 12 12 12 13 13 15 17 18 17 18 18 20 20 16 11 11 14 16 17 17 16 16 16 15 13 11 11 10 9 9 8 7 6 6 5 4 3 3 2
13 13 13 14 14 14 14 13 13 13 12 13 13 14 16 17 17 17 19 20 19 13 8 9 13 15 16 16 16 16 16 15 14 12 11 11 10 9 8 8 7 7 6 4 3 2 2
13 13 13 14 14 14 14 14 13 13 12 12 13 14 16 16 17 18 19 18 15 9 6 8 11 13 13 13 14 15 15 15 14 12 11 10 11 10 9 8 8 7 6 4 2 2 1
13 13 13 14 14 14 14 14 13 13 12 12 13 15 16 16 16 18 18 15 9 6 7 8 10 11 11 11 12 13 14 14 13 11 9 9 10 10 10 9 8 7 5 3 1 1 0
13 13 13 13 13 14 14 14 13 13 12 13 14 15 16 16 17 17 15 10 6 5 7 9 9 9 9 11 12 12 12 12 13 12 9 7 8 10 11 10 9 8 6 4 2 1 1
13 13 13 13 13 14 14 14 13 13 12 13 14 15 15 16 16 15 11 7 5 6 8 8 8 7 8 9 11 12 12 12 13 13 11 8 8 10 11 11 10 9 7 6 4 2 1
13 13 13 13 13 14 15 14 13 13 12 12 12 12 14 15 15 13 8 5 6 8 9 8 7 6 7 8 10 11 12 13 14 14 13 11 9 10 11 11 10 9 8 7 5 3 1
13 13 13 13 13 14 15 14 13 12 12 11 9 9 12 13 12 9 6 5 6 9 10 9 7 7 7 8 9 10 11 13 14 14 14 13 11 10 10 11 10 10 9 8 6 4 2
13 13 13 13 13 13 14 14 13 12 12 11 8 7 10 11 8 6 5 5 7 8 9 9 9 9 9 9 9 10 11 13 14 14 13 13 11 9 9 11 11 10 10 10 8 6 5
12 13 13 13 13 13 14 13 12 12 11 10 8 7 9 9 6 4 4 5 6 8 8 8 9 9 10 9 9 10 11 13 14 13 13 12 10 8 8 10 11 11 11 11 10 8 7
12 12 12 12 13 13 13 13 12 11 11 10 8 6 7 7 5 4 4 5 6 7 8 8 9 9 9 9 9 9 11 13 13 13 13 12 10 8 8 10 11 11 11 11 10 9 8
12 12 12 12 12 13 13 13 12 11 11 10 8 6 6 6 5 5 5 5 5 6 8 8 8 9 9 8 8 8 10 12 13 13 13 12 10 9 9 10 12 11 11 10 10 9 8
12 12 12 12 12 12 13 13 13 12 11 10 9 8 7 6 5 5 5 5 5 6 8 8 8 8 9 9 9 9 10 11 12 13 13 11 10 9 9 11 12 11 10 10 10 10 9
11 11 11 11 11 10 12 13 13 12 11 11 10 9 8 7 6 5 5 5 6 7 8 8 9 9 9 11 12 12 12 12 12 12 12 11 11 9 8 9 10 10 10 11 11 10 10
10 9 9 9 8 8 10 12 12 12 11 11 10 9 8 7 7 6 5 6 7 8 8 9 9 10 11 12 13 12 11 11 11 12 12 11 11 9 8 8 8 9 11 11 11 10 10
8 8 7 7 7 7 8 10 11 12 11 10 10 9 8 7 7 7 7 7 7 8 8 9 10 11 12 12 10 8 7 7 9 10 11 11 11 9 7 6 7 10 12 12 11 10 10
7 7 6 6 6 6 7 9 10 11 11 10 10 9 8 8 8 8 8 8 8 8 9 9 10 11 11 10 7 5 4 5 6 7 10 11 10 9 7 6 7 10 12 12 11 10 10
6 7 6 6 6 7 7 8 10 10 10 10 10 9 9 9 9 9 9 9 9 9 9 9 10 11 10 8 6 5 5 5 5 6 7 9 9 8 7 7 8 10 12 12 10 10 11
7 7 8 8 8 8 8 9 9 10 10 10 10 10 10 10 10 10 10 10 9 9 9 9 9 9 9 7 6 6 6 7 6 6 7 7 7 7 8 8 9 11 12 12 12 12 12
8 8 8 8 8 8 8 9 9 9 10 10 10 10 10 10 10 11 11 10 10 9 9 9 9 9 8 7 7 7 7 8 7 7 8 7 7 8 8 9 10 11 12 12 13 13 13